Flag Weather past 2 weeks in Dubai, Dubai, United Arab Emirates

Now
81 °F

Sunny.


Feels Like: 82 °F
Forecast: 74 / 80 °F
Wind: 12 mph from South

Location: Dubai International Airport

Current Time: Nov 26, 2014 at 10:32:41 AM

Latest Report: Nov 26, 2014 at 10:00 AM


Visibility: 10 mi

Pressure: 30.01 "Hg

Humidity: 54%

Dew point: 63 °F

Location of DubaiLocation

Historic Weather in Dubai — Graph

°F

Dubai temperature yesterday

Maximum temperature yesterday: 90 °F (at 2:00 PM)
Minimum temperature yesterday: 75 °F (at 6:00 AM)
Average temperature yesterday: 81 °F

Past Weeks' High & Low Weather Summary

 TemperatureHumidityPressure
High90 °F (Nov 25, 2:00 PM)89% (Nov 24, 1:00 AM)30.15 "Hg (Nov 24, 1:00 AM)
Low66 °F (Nov 12, 6:00 AM)14% (Nov 13, 12:00 PM)29.89 "Hg (Nov 23, 3:00 PM)
Average78 °F53%30.01 "Hg
* Reported Nov 11 9:00 AM — Nov 26 9:00 AM, Dubai, Weather by CustomWeather, © 2014

Note: Actual official high and low records may vary slightly from our data, if they occured in-between our weather recording intervals... More about our weather records

Advertising

Dubai weather history for previous 24 hours

 ConditionsComfort  
Time TempWeatherWind HumidityBarometerVisibility
9:00 AM
Nov 26
77 °FPassing clouds.9 mph61%30.01 "HgN/A
8:00 AM75 °FPassing clouds.9 mph61%29.98 "HgN/A
7:00 AM75 °FPassing clouds.7 mph69%29.95 "HgN/A
6:00 AM75 °FPassing clouds.5 mph74%29.92 "HgN/A
5:00 AM75 °FClear.7 mph74%29.89 "Hg10 mi
4:00 AM75 °FPassing clouds.8 mph74%29.89 "HgN/A
3:00 AM77 °FPassing clouds.7 mph69%29.89 "HgN/A
2:00 AM77 °FPassing clouds.7 mph69%29.89 "HgN/A
1:00 AM79 °FPassing clouds.5 mph70%29.89 "HgN/A
12:00 AM79 °FClear.8 mph65%29.92 "Hg10 mi
11:00 PM
Nov 25
79 °FPassing clouds.12 mph70%29.92 "HgN/A
10:00 PM81 °FPassing clouds.12 mph62%29.92 "HgN/A
9:00 PM81 °FPassing clouds.12 mph62%29.92 "HgN/A
8:00 PM81 °FPassing clouds.10 mph62%29.92 "HgN/A
7:00 PM81 °FPassing clouds.12 mph66%29.92 "HgN/A
6:00 PM82 °FClear.14 mph62%29.92 "Hg10 mi
5:00 PM84 °FPassing clouds.14 mph55%29.92 "HgN/A
4:00 PM84 °FPassing clouds.14 mph58%29.92 "HgN/A
3:00 PM86 °FPassing clouds.14 mph55%29.92 "HgN/A
2:00 PM90 °FPassing clouds.7 mph38%29.92 "HgN/A
1:00 PM88 °FSunny.6 mph40%29.95 "Hg10 mi
12:00 PM86 °FPassing clouds.8 mph49%29.98 "HgN/A
11:00 AM84 °FClear.9 mph51%30.01 "Hg5 mi
10:00 AM82 °FPassing clouds.7 mph55%30.04 "HgN/A
Weather by CustomWeather, © 2014

See weather overviewHow to use our weather pages